This is the latest recevied weather packets stored in our database for station/object K8RRT. If no packets are shown the sender has not sent any weather packets the latest 10 day(s).
| Time | Temp. | Humidity | Pressure | Rain* | Wind** | Luminosity | Snow |
|---|---|---|---|---|---|---|---|
| 1777944176 | 18.89° C | 68% | 1004.7 hPa | 0 mm | - | 0 W/m² | - |
| 1777943872 | 19.44° C | 67% | 1004.7 hPa | 0 mm | - | 0 W/m² | - |
| 1777943569 | 19.44° C | 67% | 1004.4 hPa | 0 mm | - | 0 W/m² | - |
| 1777943265 | 19.44° C | 65% | 1004.6 hPa | 0 mm | - | 0 W/m² | - |
| 1777942961 | 20° C | 63% | 1004.3 hPa | 0 mm | - | 0 W/m² | - |
| 1777942658 | 20.56° C | 62% | 1004.7 hPa | 0 mm | - | 0 W/m² | - |
| 1777942355 | 20.56° C | 61% | 1004.6 hPa | 0 mm | - | 0 W/m² | - |
| 1777942052 | 21.11° C | 61% | 1004.4 hPa | 0 mm | - | 0 W/m² | - |
| 1777941748 | 21.67° C | 59% | 1004.6 hPa | 0 mm | - | 0 W/m² | - |
| 1777941445 | 21.67° C | 57% | 1004.6 hPa | 0 mm | - | 0 W/m² | - |
| 1777941143 | 22.22° C | 56% | 1004.3 hPa | 0 mm | - | 0 W/m² | - |
| 1777940839 | 22.78° C | 56% | 1004.6 hPa | 0 mm | - | 0 W/m² | - |
| 1777940537 | 22.78° C | 54% | 1004.2 hPa | 0 mm | - | 0 W/m² | - |
| 1777940234 | 22.78° C | 55% | 1004.4 hPa | 0 mm | - | 5 W/m² | - |
| 1777939932 | 22.78° C | 53% | 1004.6 hPa | 0 mm | - | 8 W/m² | - |
| 1777939628 | 23.33° C | 54% | 1004.7 hPa | 0 mm | - | 10 W/m² | - |
| 1777939326 | 23.33° C | 53% | 1004.7 hPa | 0 mm | - | 10 W/m² | - |
| 1777939023 | 23.33° C | 52% | 1004.4 hPa | 0 mm | - | 5 W/m² | - |
| 1777938719 | 23.33° C | 53% | 1004.3 hPa | 0 mm | - | 10 W/m² | - |
| 1777938416 | 23.33° C | 53% | 1004.8 hPa | 0 mm | - | 13 W/m² | - |
| 1777938113 | 23.33° C | 53% | 1004.7 hPa | 0 mm | - | 17 W/m² | - |
| 1777937809 | 23.89° C | 52% | 1004.7 hPa | 0 mm | - | 26 W/m² | - |
| 1777937505 | 23.89° C | 52% | 1004.7 hPa | 0 mm | - | 37 W/m² | - |
| 1777937203 | 24.44° C | 53% | 1004.3 hPa | 0 mm | - | 36 W/m² | - |
| 1777936900 | 25° C | 50% | 1004.3 hPa | 0 mm | - | 59 W/m² | - |
* Rain latest hour (hover to see other rain measurements)
** Current wind speed in m/s (hover to see current wind gust speed)